MAYA-4

Last updated on Tue Aug 09 2022 00:02:07 GMT+0000 (Coordinated Universal Time)

1 49274U 98067ST 22219.89101805 .06984252 12292-4 89291-3 0 9992 2 49274 51.6146 45.6214 0012687 284.0539 75.9075 16.34760784 47929

Satellite not in orbit